Zurück zum Katalog

USA 267

AktivMilitärLEO
NORAD 41334·PAYLOAD·🇺🇸 United States

Gestartet Feb 10, 2016 von Vandenberg Space Force Base

Loading…

Nächste Überflüge (nächste 24 Stunden)

TLE

AlterndSource: Mike McCants

Epoche: Sep 10, 2026, 00:58 UTC

1 41334U 16010A   26253.04052634 0.00000000  00000-0  00000-0 0    08
2 41334 123.0022 109.5651 0005892 145.7518 214.2756 13.41440482    07

Verfolge USA 267 in Echtzeit mit AllMySat

Download on the App Store